This is the latest recevied weather packets stored in our database for station/object K1RFS. If no packets are shown the sender has not sent any weather packets the latest 10 day(s).
| Time | Temp. | Humidity | Pressure | Rain* | Wind** | Luminosity | Snow |
|---|---|---|---|---|---|---|---|
| 1778138988 | 8.89° C | 40% | 1004.9 hPa | 0 mm | - | 0 W/m² | - |
| 1778138686 | 8.89° C | 40% | 1005.2 hPa | 0 mm | - | 0 W/m² | - |
| 1778138383 | 9.44° C | 40% | 1005.3 hPa | 0 mm | - | 0 W/m² | - |
| 1778138080 | 9.44° C | 39% | 1005.5 hPa | 0 mm | - | 0 W/m² | - |
| 1778137776 | 10° C | 39% | 1005.3 hPa | 0 mm | - | 0 W/m² | - |
| 1778137474 | 10° C | 37% | 1005.6 hPa | 0 mm | - | 0 W/m² | - |
| 1778137170 | 9.44° C | 38% | 1005.3 hPa | 0 mm | - | 0 W/m² | - |
| 1778136867 | 10° C | 38% | 1005.3 hPa | 0 mm | - | 0 W/m² | - |
| 1778136565 | 10.56° C | 36% | 1005.4 hPa | 0 mm | - | 0 W/m² | - |
| 1778136263 | 10° C | 37% | 1005.3 hPa | 0 mm | - | 0 W/m² | - |
| 1778135960 | 8.89° C | 40% | 1005.3 hPa | 0 mm | - | 0 W/m² | - |
| 1778135657 | 8.33° C | 39% | 1005.3 hPa | 0 mm | - | 0 W/m² | - |
| 1778135354 | 8.33° C | 42% | 1005.6 hPa | 0 mm | - | 0 W/m² | - |
| 1778135051 | 8.89° C | 42% | 1005.4 hPa | 0 mm | - | 0 W/m² | - |
| 1778134749 | 8.89° C | 41% | 1005.3 hPa | 0 mm | - | 0 W/m² | - |
| 1778134447 | 8.89° C | 39% | 1005.3 hPa | 0 mm | - | 0 W/m² | - |
| 1778134145 | 9.44° C | 39% | 1005.2 hPa | 0 mm | - | 0 W/m² | - |
| 1778133841 | 9.44° C | 39% | 1005.3 hPa | 0 mm | - | 0 W/m² | - |
| 1778133538 | 8.33° C | 41% | 1005.2 hPa | 0 mm | - | 0 W/m² | - |
| 1778133233 | 8.89° C | 43% | 1005 hPa | 0 mm | - | 0 W/m² | - |
| 1778132930 | 8.89° C | 42% | 1005.3 hPa | 0 mm | - | 0 W/m² | - |
| 1778132626 | 8.89° C | 41% | 1005.2 hPa | 0 mm | - | 0 W/m² | - |
| 1778132323 | 8.89° C | 41% | 1005 hPa | 0 mm | - | 0 W/m² | - |
| 1778132021 | 8.89° C | 41% | 1005.3 hPa | 0 mm | - | 0 W/m² | - |
| 1778131720 | 8.89° C | 42% | 1005.3 hPa | 0 mm | - | 0 W/m² | - |
* Rain latest hour (hover to see other rain measurements)
** Current wind speed in m/s (hover to see current wind gust speed)